timestamp,wind_dir_avg,wind_spd_avg,wind_spd_max_dir,wind_spd_gust,battery_voltage,lat,long
2024-04-05 00:04:00+00:00,315.0,0.01,75.0,0.0,12.25,47.59359,-54.27349
2024-04-05 00:14:00+00:00,315.0,0.01,75.0,0.0,12.17,47.59359,-54.27349
2024-04-05 00:24:00+00:00,315.0,0.01,75.0,0.0,12.17,47.59359,-54.27349
2024-04-05 00:34:00+00:00,315.0,0.01,59.0,0.0,12.17,47.59359,-54.27349
2024-04-05 00:44:00+00:00,315.0,0.01,59.0,0.0,12.17,47.59359,-54.27349
2024-04-05 00:54:00+00:00,315.0,0.01,59.0,0.0,12.17,47.59359,-54.27349
2024-04-05 01:04:00+00:00,315.0,0.01,68.0,0.0,12.17,47.59359,-54.27349
2024-04-05 01:14:01+00:00,315.0,0.01,64.0,0.0,12.17,47.59359,-54.27349
2024-04-05 01:24:01+00:00,61.0,8.39,62.0,8.78,12.17,47.59359,-54.27349
2024-04-05 01:34:01+00:00,315.0,0.01,61.0,0.0,12.17,47.59359,-54.27349
2024-04-05 01:44:01+00:00,62.0,8.85,61.0,9.59,12.17,47.59359,-54.27349
2024-04-05 01:54:01+00:00,64.0,8.19,57.0,9.22,12.17,47.59359,-54.27349
2024-04-05 02:04:01+00:00,66.0,7.71,67.0,8.1,12.17,47.59359,-54.27349
2024-04-05 02:14:00+00:00,62.0,8.31,61.0,9.4,12.17,47.59359,-54.27349
2024-04-05 02:24:00+00:00,66.0,7.72,63.0,7.89,12.17,47.59359,-54.27349
2024-04-05 02:34:00+00:00,315.0,0.01,69.0,0.0,12.17,47.59359,-54.27349
2024-04-05 02:44:00+00:00,66.0,7.64,66.0,7.65,12.17,47.59359,-54.27349
2024-04-05 02:54:00+00:00,315.0,0.01,66.0,0.0,12.17,47.59359,-54.27349
2024-04-05 03:04:00+00:00,315.0,0.01,66.0,0.0,12.17,47.59359,-54.27349
2024-04-05 03:14:00+00:00,315.0,0.01,66.0,0.0,12.17,47.59359,-54.27349
2024-04-05 03:24:00+00:00,63.0,7.92,63.0,7.92,12.17,47.59359,-54.27349
2024-04-05 03:34:00+00:00,315.0,0.01,63.0,0.0,12.17,47.59359,-54.27349
2024-04-05 03:44:00+00:00,315.0,0.01,63.0,0.0,12.17,47.59359,-54.27349
2024-04-05 03:54:00+00:00,315.0,0.01,63.0,0.0,12.17,47.59359,-54.27349
2024-04-05 04:04:00+00:00,315.0,0.01,63.0,0.0,12.17,47.59359,-54.27349
2024-04-05 04:14:01+00:00,315.0,0.01,63.0,0.0,12.09,47.59359,-54.27349
2024-04-05 04:24:01+00:00,315.0,0.01,63.0,0.0,12.09,47.59359,-54.27349
2024-04-05 04:34:01+00:00,315.0,0.01,63.0,0.0,12.09,47.59359,-54.27349
2024-04-05 04:44:01+00:00,315.0,0.01,63.0,0.0,12.09,47.59359,-54.27349
2024-04-05 04:54:01+00:00,315.0,0.01,63.0,0.0,12.09,47.59359,-54.27349
2024-04-05 05:04:01+00:00,315.0,0.01,63.0,0.0,12.09,47.59359,-54.27349
2024-04-05 05:14:00+00:00,315.0,0.01,63.0,0.0,12.09,47.59359,-54.27349
2024-04-05 05:24:00+00:00,315.0,0.01,63.0,0.0,12.09,47.59359,-54.27349
2024-04-05 05:34:00+00:00,315.0,0.01,63.0,0.0,12.09,47.59359,-54.27349
2024-04-05 05:44:00+00:00,315.0,0.01,63.0,0.0,12.09,47.59359,-54.27349
2024-04-05 05:54:00+00:00,315.0,0.01,63.0,0.0,12.09,47.59359,-54.27349
2024-04-05 06:04:00+00:00,315.0,0.01,63.0,0.0,12.09,47.59359,-54.27349
2024-04-05 06:14:00+00:00,315.0,0.01,63.0,0.0,12.09,47.59359,-54.27349
2024-04-05 06:24:00+00:00,315.0,0.01,53.0,0.0,12.09,47.59359,-54.27349
2024-04-05 06:34:00+00:00,49.0,8.69,51.0,9.21,12.09,47.59359,-54.27349
2024-04-05 06:44:00+00:00,315.0,0.01,48.0,0.0,12.09,47.59359,-54.27349
2024-04-05 06:54:00+00:00,315.0,0.01,48.0,0.0,12.09,47.59359,-54.27349
2024-04-05 07:04:00+00:00,315.0,0.01,48.0,0.0,12.09,47.59359,-54.27349
2024-04-05 07:14:00+00:00,315.0,0.01,49.0,0.0,12.01,47.59359,-54.27349
2024-04-05 07:24:00+00:00,315.0,0.01,49.0,0.0,12.01,47.59359,-54.27349
2024-04-05 07:34:00+00:00,315.0,0.01,54.0,0.0,12.01,47.59359,-54.27349
2024-04-05 07:44:00+00:00,315.0,0.01,59.0,0.0,12.01,47.59359,-54.27349
2024-04-05 07:54:00+00:00,315.0,0.01,58.0,0.0,12.01,47.59359,-54.27349
2024-04-05 08:04:00+00:00,315.0,0.01,58.0,0.0,12.01,47.59359,-54.27349
2024-04-05 08:14:00+00:00,57.0,8.87,55.0,9.14,12.01,47.59359,-54.27349
2024-04-05 08:24:00+00:00,51.0,10.38,45.0,11.24,12.01,47.59359,-54.27349
2024-04-05 08:34:00+00:00,58.0,9.2,59.0,9.98,12.01,47.59359,-54.27349
2024-04-05 08:44:00+00:00,57.0,9.39,54.0,9.62,12.01,47.59359,-54.27349
2024-04-05 08:54:00+00:00,315.0,0.01,66.0,0.0,12.01,47.59359,-54.27349
2024-04-05 09:04:00+00:00,315.0,0.01,63.0,0.0,12.01,47.59359,-54.27349
2024-04-05 09:14:00+00:00,63.0,9.39,60.0,9.58,12.01,47.59359,-54.27349
2024-04-05 09:24:00+00:00,315.0,0.01,71.0,0.0,12.01,47.59359,-54.27349
2024-04-05 09:34:00+00:00,315.0,0.01,71.0,0.0,12.01,47.59359,-54.27349
2024-04-05 09:44:00+00:00,64.0,8.97,64.0,8.98,12.01,47.59359,-54.27349
2024-04-05 09:54:00+00:00,57.0,9.29,53.0,10.37,12.01,47.59359,-54.27349
2024-04-05 10:04:00+00:00,59.0,8.51,63.0,8.95,12.01,47.59359,-54.27349
2024-04-05 10:14:00+00:00,62.0,8.81,59.0,9.2,12.09,47.59359,-54.27349
2024-04-05 10:24:00+00:00,66.0,8.8,64.0,9.42,12.09,47.59359,-54.27349
2024-04-05 10:34:00+00:00,65.0,8.84,58.0,9.64,12.09,47.59359,-54.27349
2024-04-05 10:44:00+00:00,67.0,8.72,66.0,9.83,12.09,47.59359,-54.27349
2024-04-05 10:54:00+00:00,62.0,9.39,56.0,10.15,12.09,47.59359,-54.27349
2024-04-05 11:04:00+00:00,60.0,9.42,69.0,9.79,12.09,47.59359,-54.27349
2024-04-05 11:14:00+00:00,62.0,9.09,64.0,9.92,12.65,47.59359,-54.27349
2024-04-05 11:24:00+00:00,61.0,8.69,57.0,9.34,12.65,47.59359,-54.27349
2024-04-05 11:34:00+00:00,60.0,8.77,57.0,9.74,12.65,47.59359,-54.27349
2024-04-05 11:44:00+00:00,59.0,8.55,64.0,10.14,12.65,47.59359,-54.27349
2024-04-05 11:54:00+00:00,61.0,8.75,53.0,9.78,12.65,47.59359,-54.27349
2024-04-05 12:04:00+00:00,60.0,8.26,60.0,8.27,12.65,47.59359,-54.27349
2024-04-05 12:14:00+00:00,59.0,8.99,62.0,9.99,13.44,47.59359,-54.27349
2024-04-05 12:24:00+00:00,59.0,8.43,61.0,9.21,13.44,47.59359,-54.27349
2024-04-05 12:34:00+00:00,58.0,8.78,63.0,9.59,13.44,47.59359,-54.27349
2024-04-05 12:44:00+00:00,59.0,7.93,59.0,7.94,13.44,47.59359,-54.27349
2024-04-05 12:54:00+00:00,63.0,8.17,58.0,9.0,13.44,47.59359,-54.27349
2024-04-05 13:04:00+00:00,57.0,8.69,59.0,9.73,13.44,47.59359,-54.27349
2024-04-05 13:14:01+00:00,64.0,8.97,63.0,9.73,13.68,47.59359,-54.27349
2024-04-05 13:24:01+00:00,60.0,9.44,57.0,10.24,13.68,47.59359,-54.27349
2024-04-05 13:34:01+00:00,61.0,8.38,63.0,9.14,13.68,47.59359,-54.27349
2024-04-05 13:44:01+00:00,62.0,8.72,60.0,9.85,13.68,47.59359,-54.27349
2024-04-05 13:54:01+00:00,61.0,9.18,59.0,10.18,13.68,47.59359,-54.27349
2024-04-05 14:04:01+00:00,66.0,9.11,65.0,9.83,13.68,47.59359,-54.27349
2024-04-05 14:14:00+00:00,60.0,8.93,60.0,9.95,13.53,47.59359,-54.27349
2024-04-05 14:24:00+00:00,60.0,9.43,58.0,10.37,13.53,47.59359,-54.27349
2024-04-05 14:34:00+00:00,57.0,9.68,55.0,10.56,13.53,47.59359,-54.27349
2024-04-05 14:44:00+00:00,58.0,9.35,57.0,10.27,13.53,47.59359,-54.27349
2024-04-05 14:54:00+00:00,55.0,9.38,56.0,10.39,13.53,47.59359,-54.27349
2024-04-05 15:04:00+00:00,53.0,9.37,53.0,10.75,13.53,47.59359,-54.27349
2024-04-05 15:14:00+00:00,58.0,8.77,55.0,9.8,13.53,47.59359,-54.27349
2024-04-05 15:24:00+00:00,64.0,8.19,67.0,8.79,13.53,47.59359,-54.27349
2024-04-05 15:34:00+00:00,69.0,7.92,69.0,7.98,13.53,47.59359,-54.27349
2024-04-05 15:44:00+00:00,67.0,8.17,68.0,8.84,13.53,47.59359,-54.27349
2024-04-05 15:54:00+00:00,64.0,7.97,67.0,8.76,13.53,47.59359,-54.27349
2024-04-05 16:04:00+00:00,315.0,0.01,64.0,0.0,13.53,47.59359,-54.27349
2024-04-05 16:14:00+00:00,63.0,8.64,64.0,9.17,13.44,47.59359,-54.27349
2024-04-05 16:24:00+00:00,315.0,0.01,66.0,0.0,13.44,47.59359,-54.27349
2024-04-05 16:34:00+00:00,315.0,0.01,66.0,0.0,13.44,47.59359,-54.27349
2024-04-05 16:44:00+00:00,315.0,0.01,66.0,0.0,13.44,47.59359,-54.27349
2024-04-05 16:54:00+00:00,55.0,7.92,55.0,7.93,13.44,47.59359,-54.27349
2024-04-05 17:04:00+00:00,315.0,0.01,62.0,0.0,13.44,47.59359,-54.27349
2024-04-05 17:14:00+00:00,315.0,0.01,72.0,0.0,13.6,47.59359,-54.27349
2024-04-05 17:24:00+00:00,315.0,0.01,58.0,0.0,13.6,47.59359,-54.27349
2024-04-05 17:34:00+00:00,56.0,8.18,56.0,8.19,13.6,47.59359,-54.27349
2024-04-05 17:44:00+00:00,315.0,0.01,70.0,0.0,13.6,47.59359,-54.27349
2024-04-05 17:54:00+00:00,71.0,8.64,70.0,8.8,13.6,47.59359,-54.27349
2024-04-05 18:04:00+00:00,315.0,0.01,66.0,0.0,13.6,47.59359,-54.27349
2024-04-05 18:14:00+00:00,70.0,8.58,72.0,8.66,13.6,47.59359,-54.27349
2024-04-05 18:24:00+00:00,315.0,0.01,73.0,0.0,13.6,47.59359,-54.27349
2024-04-05 18:34:00+00:00,315.0,0.01,67.0,0.0,13.6,47.59359,-54.27349
2024-04-05 18:44:00+00:00,315.0,0.01,70.0,0.0,13.6,47.59359,-54.27349
2024-04-05 18:54:00+00:00,315.0,0.01,71.0,0.0,13.6,47.59359,-54.27349
2024-04-05 19:04:00+00:00,67.0,8.99,67.0,9.0,13.6,47.59359,-54.27349
2024-04-05 19:14:00+00:00,315.0,0.01,71.0,0.0,13.53,47.59359,-54.27349
2024-04-05 19:24:00+00:00,70.0,8.92,70.0,8.93,13.53,47.59359,-54.27349
2024-04-05 19:34:00+00:00,315.0,0.01,66.0,0.0,13.53,47.59359,-54.27349
2024-04-05 19:44:00+00:00,53.0,9.84,54.0,9.91,13.53,47.59359,-54.27349
2024-04-05 19:54:00+00:00,55.0,9.91,55.0,9.96,13.53,47.59359,-54.27349
2024-04-05 20:04:00+00:00,52.0,10.04,52.0,10.05,13.53,47.59359,-54.27349
2024-04-05 20:14:00+00:00,55.0,9.77,52.0,10.45,13.37,47.59359,-54.27349
2024-04-05 20:24:00+00:00,54.0,9.92,52.0,10.21,13.37,47.59359,-54.27349
2024-04-05 20:34:00+00:00,56.0,9.78,57.0,10.35,13.37,47.59359,-54.27349
2024-04-05 20:44:00+00:00,57.0,9.5,55.0,10.31,13.37,47.59359,-54.27349
2024-04-05 20:54:00+00:00,62.0,9.15,55.0,10.07,13.37,47.59359,-54.27349
2024-04-05 21:04:00+00:00,63.0,9.12,61.0,9.62,13.37,47.59359,-54.27349
2024-04-05 21:14:01+00:00,315.0,0.01,63.0,0.0,13.05,47.59359,-54.27349
2024-04-05 21:24:01+00:00,57.0,9.64,56.0,9.9,13.05,47.59359,-54.27349
2024-04-05 21:34:01+00:00,52.0,10.06,47.0,11.27,13.05,47.59359,-54.27349
2024-04-05 21:44:01+00:00,315.0,0.01,53.0,0.0,13.05,47.59359,-54.27349
2024-04-05 21:54:01+00:00,51.0,10.51,49.0,11.08,13.05,47.59359,-54.27349
2024-04-05 22:04:01+00:00,56.0,9.56,50.0,11.02,13.05,47.59359,-54.27349
2024-04-05 22:14:00+00:00,50.0,10.35,49.0,10.61,12.65,47.59359,-54.27349
2024-04-05 22:24:00+00:00,54.0,9.75,51.0,10.85,12.65,47.59359,-54.27349
2024-04-05 22:34:00+00:00,49.0,10.35,42.0,11.67,12.65,47.59359,-54.27349
2024-04-05 22:44:00+00:00,51.0,9.86,48.0,10.29,12.65,47.59359,-54.27349
2024-04-05 22:54:00+00:00,51.0,10.14,48.0,10.79,12.65,47.59359,-54.27349
2024-04-05 23:04:00+00:00,315.0,0.01,54.0,0.0,12.65,47.59359,-54.27349
2024-04-05 23:14:00+00:00,57.0,9.42,46.0,11.06,12.25,47.59359,-54.27349
2024-04-05 23:24:00+00:00,58.0,9.55,52.0,9.92,12.25,47.59359,-54.27349
2024-04-05 23:34:00+00:00,59.0,10.21,59.0,10.22,12.25,47.59359,-54.27349
2024-04-05 23:44:00+00:00,68.0,8.95,64.0,9.59,12.25,47.59359,-54.27349
2024-04-05 23:54:00+00:00,315.0,0.01,61.0,0.0,12.25,47.59359,-54.27349
